Temperature
16 14 14 14 15 17 18 19 19 19 20 21 20 20 20 21 21 21 22 22 22 23 25 24 24 23 23 23 22 22 21 20 20 19 19 18 17 17 17 17 17 16 16 16
14 15 15 16 16 17 18 18 18 18 19 21 20 19 19 20 20 22 22 22 22 23 23 23 23 23 23 22 22 21 21 20 19 19 18 18 17 17 16 16 16 16 16 16
15 16 17 17 17 17 17 18 18 18 18 19 20 19 19 20 21 21 22 22 22 22 23 23 23 23 23 22 21 21 20 19 19 18 18 17 16 16 16 15 15 15 15 15
16 17 18 18 18 17 17 18 18 19 18 16 19 17 18 19 18 18 20 21 21 21 22 22 22 22 22 21 21 20 19 18 18 17 17 17 16 16 15 15 15 14 14 14
16 17 17 18 18 18 18 19 19 19 18 17 17 17 17 17 19 19 18 19 20 21 21 21 20 21 20 20 20 19 18 17 17 17 16 16 16 15 15 14 14 13 13 13
17 18 18 18 19 19 19 19 17 14 15 16 17 16 17 17 18 17 17 17 17 18 19 18 18 18 18 18 17 17 17 16 16 16 15 15 15 15 14 14 13 13 12 12
18 19 19 19 20 20 18 16 15 16 14 15 17 16 16 17 16 16 16 16 16 16 16 16 16 16 16 16 16 16 16 15 16 15 15 15 14 14 13 13 13 12 12 11
17 17 18 19 19 18 17 16 15 16 16 16 17 16 16 16 16 16 15 15 15 15 15 15 15 15 15 15 15 15 15 15 15 15 15 14 13 13 13 12 12 11 10 10
16 17 19 19 19 18 17 15 16 15 16 16 16 16 17 16 16 16 15 14 14 14 14 14 14 14 14 14 14 14 14 14 14 14 14 13 13 12 12 11 10 10 9 8
16 17 19 20 19 19 18 15 13 14 15 16 17 17 15 15 15 15 15 14 13 13 13 13 13 13 13 13 13 14 14 13 13 13 12 12 11 11 10 10 9 8 8 7
16 17 18 19 19 19 17 16 15 13 14 15 15 15 15 14 14 14 14 13 12 12 12 12 12 12 13 12 13 13 13 12 12 12 11 11 10 9 9 8 8 7 7 6
15 15 16 18 18 18 18 17 14 15 15 14 14 14 14 13 14 14 13 12 12 11 11 11 12 12 12 12 12 12 11 11 11 10 10 9 9 8 8 7 7 6 6 5
14 14 15 17 17 17 17 17 15 13 12 13 14 14 14 14 13 13 12 11 11 11 11 11 11 11 11 11 11 10 10 10 9 9 8 8 7 7 6 6 6 5 5 5
14 13 14 15 15 16 16 17 16 15 13 13 14 14 13 13 13 12 11 10 10 10 10 10 10 10 10 10 9 9 9 8 8 7 7 7 6 6 5 5 5 5 4 4
13 13 14 15 15 16 15 15 15 15 15 14 14 13 13 12 12 11 10 10 10 9 9 9 9 9 9 8 8 8 7 7 7 6 6 6 5 5 5 4 4 4 4 3
11 13 14 14 15 15 14 13 14 14 14 14 13 12 11 11 10 10 10 9 9 8 8 8 8 8 7 7 7 7 6 6 6 6 5 5 4 4 4 4 3 3 3 3
10 12 12 13 14 14 13 12 12 12 12 13 13 12 11 10 9 9 9 9 8 8 8 7 7 7 6 6 6 6 5 5 5 5 4 4 4 4 3 3 3 2 2 2
10 11 10 11 13 13 12 12 12 11 11 11 11 10 10 8 7 8 8 8 8 8 7 7 6 6 6 5 5 5 5 4 4 4 4 3 3 3 3 2 2 2 1 1
9 10 10 10 11 12 12 12 11 11 10 10 10 9 8 7 8 7 7 8 7 7 7 6 6 5 5 5 4 4 4 4 4 3 3 3 3 2 2 2 1 1 1 0
8 8 9 10 11 11 11 11 11 11 10 9 9 8 8 8 8 6 6 7 6 6 6 5 5 5 4 4 4 4 3 3 3 3 3 2 2 2 1 1 1 0 0 -0
8 8 8 9 10 10 9 9 10 10 10 8 8 8 8 7 7 6 6 6 6 5 5 5 4 4 4 3 3 3 3 3 3 2 2 2 2 1 1 1 1 0 -0 -0
8 8 8 8 9 9 7 8 9 8 7 8 8 8 7 6 5 5 5 5 5 4 4 4 4 3 3 3 3 3 3 3 2 2 2 2 1 1 1 1 0 -0 -0 -1
7 7 7 7 8 7 6 6 6 7 7 7 7 7 7 5 5 5 4 4 4 4 4 3 3 3 3 3 3 3 3 2 2 2 2 2 1 1 1 1 0 -0 -1 -1
8 7 7 7 7 6 6 6 6 7 7 7 7 6 6 5 5 4 4 4 4 3 3 3 3 3 3 3 3 3 3 2 2 2 2 2 2 1 1 0 0 -0 -1 -1
7 7 7 7 7 6 6 6 6 6 6 6 6 6 6 5 5 4 4 4 4 3 3 3 3 3 3 3 3 3 3 3 2 2 2 2 2 1 1 0 -0 -1 -1 -1
6 6 7 7 7 5 5 5 5 5 6 6 6 5 5 5 4 4 4 4 4 3 3 3 3 3 3 3 3 3 3 3 3 2 2 2 2 1 1 0 -0 -1 -1 -1
Wind_Speed
6 5 6 9 10 8 4 3 4 6 5 3 6 9 11 7 7 10 10 12 15 20 17 11 12 11 11 12 13 13 12 11 11 9 8 5 4 2 2 2 4 6 9 10
5 5 10 9 7 6 5 4 6 7 3 1 6 9 10 7 7 9 12 14 15 16 11 10 11 10 11 12 11 10 11 10 10 9 7 4 4 4 3 3 5 6 8 9
9 7 7 7 6 7 6 6 6 7 7 5 4 9 9 7 4 5 7 9 10 12 13 10 8 9 8 8 9 9 10 9 9 9 7 7 5 3 3 3 3 5 8 9
7 8 5 6 7 9 6 8 7 4 2 5 2 5 10 8 8 7 6 6 7 7 8 7 6 6 5 5 7 8 9 9 9 9 9 8 5 3 3 3 4 6 8 10
8 7 8 8 9 10 9 5 6 4 4 3 2 3 9 7 7 7 6 5 5 3 2 2 4 6 7 8 9 10 11 11 9 9 9 8 6 5 6 6 7 6 6 8
7 5 8 10 9 9 5 5 6 5 4 2 6 6 7 5 5 8 7 6 5 4 6 9 10 12 12 11 11 11 13 11 10 9 8 8 8 9 10 9 8 6 5 5
3 4 5 5 3 2 5 5 4 4 2 7 3 5 7 5 6 5 5 6 7 9 11 12 13 13 13 13 12 12 13 12 10 10 9 9 8 9 10 9 8 8 5 4
6 7 7 8 9 8 7 10 8 6 6 5 1 5 3 4 6 8 8 10 12 13 13 13 13 13 12 13 12 12 12 11 9 9 10 9 8 7 6 8 7 7 5 5
8 8 6 8 9 11 8 8 9 7 3 1 4 3 1 5 8 10 11 12 13 13 14 14 14 14 13 13 12 12 12 11 10 10 11 11 9 8 9 9 8 7 6 6
8 5 5 3 4 3 7 8 7 8 8 5 4 3 2 3 4 7 9 11 11 12 13 14 13 14 13 13 13 13 13 13 12 11 10 10 10 10 9 9 9 8 8 7
5 6 5 3 2 3 5 5 5 5 5 8 5 5 1 2 2 6 8 10 11 12 12 12 12 12 13 12 12 12 12 13 12 12 11 12 11 10 11 10 9 8 8 7
2 4 3 3 2 1 5 4 7 5 4 5 6 3 4 1 5 9 10 10 11 11 11 12 12 12 12 12 12 12 12 12 11 11 12 11 11 11 11 10 9 8 8 7
2 4 3 3 4 6 5 3 3 5 5 4 5 3 2 6 9 10 10 10 10 11 11 11 11 11 11 11 11 11 11 11 11 11 12 11 11 11 10 9 8 8 8 7
3 5 4 4 3 0 3 4 2 5 4 2 3 5 4 7 8 8 9 9 10 9 9 10 10 10 10 10 10 10 10 10 10 11 11 11 10 9 9 8 8 7 7 6
5 5 4 4 4 3 5 6 4 3 5 5 5 6 5 5 8 8 8 9 9 9 9 9 9 8 9 9 9 9 9 9 9 11 11 9 8 8 8 8 7 7 7 6
6 4 4 4 5 4 5 8 6 5 3 6 8 5 4 7 9 9 8 8 8 7 7 8 8 8 8 8 8 9 8 8 9 10 9 8 8 8 8 7 7 7 7 6
4 3 3 2 4 3 3 6 4 4 3 1 4 5 8 8 8 7 6 7 7 7 8 8 8 8 7 7 8 8 7 8 9 9 8 8 7 8 7 7 7 7 5 5
1 2 2 0 1 2 1 3 5 7 7 6 8 9 9 10 8 8 7 8 8 8 8 8 8 8 7 7 7 7 8 8 8 7 7 7 7 7 6 7 6 5 4 4
2 4 3 3 2 1 2 1 2 2 3 4 7 9 9 8 6 7 8 9 9 8 8 8 7 7 7 7 7 8 7 7 7 6 6 6 6 6 6 6 5 4 3 4
5 4 4 3 3 5 2 2 4 4 1 0 3 6 6 4 3 2 6 9 10 9 8 8 8 8 8 6 6 8 7 6 6 5 5 5 5 5 5 4 3 3 3 3
5 5 3 2 2 2 3 6 2 4 3 2 3 4 4 2 3 8 9 9 9 9 9 8 8 7 6 5 6 7 6 5 4 4 5 5 4 4 3 3 3 3 3 4
1 2 1 1 1 3 6 5 2 1 2 3 3 3 6 8 10 10 10 10 9 9 8 8 7 6 5 5 6 6 4 3 3 4 4 3 3 2 3 3 3 3 3 4
1 2 3 2 3 1 3 3 3 1 2 2 2 5 9 10 9 10 9 9 8 8 7 6 6 6 5 4 5 5 2 2 3 4 3 2 2 2 2 2 2 2 2 3
2 2 2 1 2 1 2 3 4 3 2 2 4 6 8 10 11 11 10 8 7 7 6 5 6 5 4 3 3 2 1 2 3 2 1 1 1 2 2 2 1 1 1 2
3 1 2 2 2 2 1 2 3 4 5 6 6 6 9 12 12 11 9 8 7 6 5 5 5 4 3 2 2 1 1 2 2 1 0 1 1 1 1 1 1 1 2 2
3 4 4 4 4 4 2 2 3 5 5 7 9 10 10 11 12 11 8 6 6 5 4 4 4 3 2 3 2 2 1 2 2 0 1 0 0 0 1 1 2 3 3 5
Wind_Direction
140 122 187 201 191 190 198 217 262 268 280 317 293 288 288 276 246 246 238 225 221 226 228 214 209 201 193 192 192 190 186 174 163 163 159 153 151 140 108 110 123 141 140 137
94 215 213 194 185 187 207 246 275 290 327 278 296 292 285 270 240 237 238 236 231 236 234 218 212 203 199 194 188 183 181 170 165 162 151 137 126 113 93 80 88 108 120 124
174 219 194 168 169 180 202 207 237 265 331 347 304 308 305 300 298 286 262 249 244 235 231 226 216 211 200 186 176 174 165 156 148 137 120 107 92 86 102 96 89 86 100 112
202 227 165 168 190 175 231 223 215 241 333 299 21 304 296 298 315 304 291 280 265 250 234 216 197 192 178 157 142 137 134 129 128 126 130 132 142 146 139 124 108 97 101 108
216 195 180 196 207 179 213 213 198 212 195 266 266 199 282 316 312 311 324 324 307 279 226 178 140 116 100 101 105 108 109 107 110 114 129 126 122 115 113 109 105 95 89 96
215 204 186 202 212 191 182 76 51 53 93 243 233 175 270 297 302 317 344 2 5 28 72 84 87 91 90 91 95 100 103 97 94 97 104 111 121 129 132 129 123 110 99 94
250 254 222 179 153 136 132 108 20 353 29 240 228 171 243 316 348 347 4 31 50 68 78 83 86 87 88 88 90 94 97 94 93 97 100 108 125 136 140 137 132 127 118 107
202 261 227 190 184 189 177 152 167 199 213 256 217 210 238 35 42 53 60 65 69 71 74 77 79 81 83 83 85 89 92 94 95 100 102 107 115 118 120 120 123 121 115 109
189 240 259 217 193 170 165 190 183 156 173 227 269 265 341 47 55 62 70 72 69 70 72 72 71 72 74 74 73 79 82 77 73 78 86 88 94 102 106 105 102 101 102 104
172 230 277 254 120 140 163 150 111 140 160 209 257 253 246 357 55 73 77 75 73 71 69 67 66 67 67 69 70 69 75 78 76 77 81 87 86 90 96 97 94 94 90 90
160 193 292 20 129 176 114 121 131 141 165 166 209 250 309 236 133 103 90 82 75 71 70 68 67 67 68 67 68 70 72 74 74 77 81 83 83 85 86 86 86 86 84 85
46 144 229 256 299 62 123 144 147 155 201 179 171 216 354 100 113 112 101 89 80 75 72 70 69 69 68 69 69 70 71 73 75 79 80 79 78 78 79 79 78 81 81 80
31 91 85 15 355 16 55 44 121 121 112 135 154 189 54 91 96 98 98 92 85 78 73 70 67 66 67 69 72 73 75 77 78 80 80 78 76 76 75 74 73 76 79 78
92 67 114 170 218 316 42 13 64 107 116 144 169 147 123 108 101 94 93 90 83 75 71 69 67 67 68 70 74 77 75 77 81 81 80 78 76 77 77 76 74 74 78 81
54 64 47 43 31 66 58 22 22 79 141 153 160 143 134 117 111 102 99 96 88 80 73 70 73 74 75 75 73 73 73 74 81 83 81 79 78 78 76 73 71 70 70 76
30 61 37 20 26 54 53 19 24 48 74 120 127 116 97 94 95 95 96 101 96 90 84 80 81 81 79 80 79 76 73 73 80 82 81 81 80 78 75 73 69 68 64 62
3 58 65 316 331 28 17 356 19 55 15 136 157 144 129 105 90 82 85 97 99 96 91 87 85 82 81 79 83 82 79 76 78 79 79 78 80 77 71 73 68 63 57 56
165 89 108 141 34 222 194 47 74 85 48 55 97 106 106 108 95 68 66 90 96 97 95 92 93 90 84 83 83 83 78 76 78 79 80 81 82 80 72 67 60 51 46 44
165 144 126 123 141 158 192 31 4 89 54 39 108 114 114 119 94 61 57 77 88 92 95 94 94 93 88 81 84 86 78 74 76 79 81 83 86 82 71 61 49 39 40 34
45 75 113 130 164 218 211 3 346 100 149 95 117 129 133 123 111 114 92 91 91 91 93 94 92 88 82 74 80 83 79 77 77 81 86 83 82 83 76 64 49 36 43 33
10 25 64 125 193 258 2 317 331 172 230 136 133 141 139 101 104 119 110 96 94 94 94 93 89 83 76 76 83 83 79 74 72 84 86 79 75 83 83 70 55 51 46 32
16 37 43 90 203 256 349 1 95 231 8 64 102 114 111 108 110 113 110 107 105 100 94 92 90 79 67 75 90 89 81 66 73 80 80 71 58 62 93 88 67 52 42 29
153 192 186 189 213 299 11 36 8 13 48 37 92 121 130 129 126 121 115 111 106 103 96 88 90 79 59 64 94 101 94 94 93 85 80 71 60 50 76 96 77 47 32 23
318 131 137 189 221 147 49 31 19 29 42 59 119 131 135 133 129 123 118 113 105 98 93 90 87 79 56 50 74 111 104 112 108 102 88 86 64 43 52 70 79 47 3 360
257 154 144 236 204 132 75 51 47 57 69 83 95 108 126 128 125 123 118 111 105 98 90 89 92 92 75 61 57 60 112 132 130 136 296 333 27 61 46 23 308 300 270 267
223 181 180 232 212 172 162 117 97 89 86 101 107 104 110 118 120 118 113 109 108 104 97 95 96 97 81 73 53 30 74 136 140 147 312 321 354 20 30 2 345 331 318 323
Height
1484 1492 1497 1496 1494 1496 1495 1497 1499 1496 1489 1489 1489 1487 1480 1475 1474 1473 1473 1474 1475 1474 1475 1480 1483 1486 1489 1492 1494 1497 1501 1504 1508 1512 1515 1519 1521 1525 1528 1530 1531 1533 1535 1537
1488 1491 1487 1486 1490 1492 1495 1498 1499 1494 1488 1487 1488 1485 1476 1472 1471 1469 1469 1469 1470 1471 1473 1476 1478 1481 1484 1487 1490 1494 1497 1500 1504 1507 1510 1514 1517 1521 1524 1525 1527 1529 1531 1532
1484 1482 1479 1485 1489 1493 1495 1497 1496 1495 1491 1488 1488 1489 1479 1470 1468 1467 1466 1466 1466 1467 1468 1470 1474 1477 1480 1483 1486 1490 1493 1498 1502 1505 1508 1512 1515 1517 1519 1522 1524 1525 1527 1528
1480 1476 1478 1482 1485 1488 1496 1488 1489 1491 1498 1504 1495 1508 1486 1474 1470 1466 1465 1464 1463 1463 1464 1466 1469 1472 1476 1480 1484 1488 1491 1495 1500 1503 1506 1509 1512 1515 1516 1518 1521 1522 1524 1526
1475 1472 1476 1480 1480 1481 1485 1481 1486 1489 1495 1502 1500 1506 1495 1477 1473 1468 1465 1464 1462 1461 1462 1463 1466 1470 1474 1478 1481 1486 1490 1494 1498 1501 1505 1508 1510 1511 1513 1516 1518 1520 1521 1523
1467 1466 1467 1469 1469 1473 1476 1483 1490 1498 1503 1510 1499 1506 1499 1483 1476 1471 1467 1465 1462 1461 1461 1463 1466 1469 1473 1477 1481 1485 1489 1493 1498 1501 1504 1507 1508 1509 1511 1514 1516 1518 1519 1520
1469 1465 1463 1464 1469 1471 1478 1494 1511 1510 1518 1512 1493 1498 1495 1479 1475 1473 1470 1467 1465 1464 1464 1466 1468 1471 1475 1478 1482 1486 1490 1494 1497 1500 1502 1504 1507 1509 1510 1512 1514 1516 1518 1519
1477 1477 1462 1460 1465 1473 1478 1487 1508 1514 1513 1506 1493 1496 1487 1478 1476 1473 1471 1470 1469 1469 1470 1471 1473 1476 1479 1482 1486 1489 1492 1495 1498 1499 1501 1503 1506 1509 1510 1511 1514 1516 1518 1519
1474 1473 1456 1454 1454 1461 1475 1482 1479 1497 1500 1504 1499 1489 1483 1478 1477 1476 1475 1475 1474 1475 1475 1477 1478 1480 1483 1486 1488 1491 1494 1496 1498 1499 1502 1504 1507 1510 1511 1512 1514 1516 1518 1519
1462 1468 1456 1451 1453 1456 1461 1470 1487 1497 1508 1509 1496 1491 1493 1484 1481 1480 1479 1479 1480 1480 1480 1481 1483 1485 1487 1489 1491 1494 1496 1497 1499 1502 1504 1506 1509 1510 1511 1513 1514 1516 1517 1519
1458 1466 1461 1456 1458 1461 1465 1471 1478 1489 1491 1501 1505 1500 1485 1484 1482 1482 1483 1483 1484 1484 1485 1486 1487 1489 1491 1493 1495 1497 1499 1501 1502 1504 1506 1508 1510 1511 1512 1514 1515 1517 1518 1519
1460 1466 1469 1462 1455 1454 1458 1464 1475 1484 1488 1490 1495 1499 1483 1481 1481 1483 1485 1486 1487 1488 1489 1490 1492 1493 1495 1497 1498 1500 1502 1503 1505 1506 1508 1509 1511 1512 1513 1515 1517 1518 1519 1520
1462 1468 1475 1472 1469 1462 1462 1463 1468 1476 1485 1492 1495 1496 1484 1482 1483 1485 1488 1489 1491 1492 1493 1494 1495 1497 1498 1500 1501 1503 1504 1505 1507 1509 1510 1511 1512 1514 1515 1517 1518 1519 1519 1519
1461 1471 1476 1480 1476 1468 1468 1467 1467 1472 1485 1489 1488 1488 1486 1485 1487 1489 1491 1493 1494 1496 1497 1498 1499 1500 1501 1502 1504 1505 1506 1508 1510 1511 1512 1513 1514 1516 1517 1518 1519 1519 1519 1519
1464 1474 1472 1471 1468 1467 1471 1472 1469 1470 1474 1482 1484 1484 1486 1486 1489 1492 1494 1496 1497 1499 1501 1502 1502 1503 1504 1505 1507 1508 1510 1511 1512 1513 1515 1516 1517 1518 1518 1519 1519 1519 1518 1518
1472 1475 1474 1475 1471 1471 1475 1475 1473 1473 1474 1476 1480 1486 1487 1489 1491 1493 1496 1498 1500 1502 1503 1505 1506 1506 1507 1509 1510 1511 1513 1514 1515 1516 1517 1518 1518 1519 1519 1519 1519 1518 1518 1517
1479 1479 1482 1483 1477 1474 1483 1483 1479 1479 1479 1478 1480 1484 1487 1490 1493 1495 1497 1499 1502 1504 1506 1507 1508 1509 1511 1512 1513 1514 1515 1516 1517 1518 1519 1519 1519 1519 1520 1520 1519 1518 1518 1517
1481 1483 1487 1487 1483 1490 1489 1483 1481 1483 1483 1481 1482 1485 1488 1492 1496 1497 1499 1500 1503 1505 1508 1509 1510 1511 1513 1515 1516 1517 1518 1519 1519 1520 1520 1521 1521 1521 1521 1520 1519 1518 1517 1516
1480 1483 1489 1492 1490 1489 1487 1484 1484 1485 1488 1487 1487 1490 1492 1494 1496 1500 1501 1503 1505 1507 1509 1511 1513 1514 1515 1517 1518 1519 1520 1521 1521 1522 1522 1522 1523 1522 1522 1521 1520 1519 1517 1516
1483 1484 1490 1492 1491 1493 1488 1485 1484 1486 1490 1490 1490 1492 1493 1495 1499 1504 1504 1505 1507 1509 1511 1513 1515 1516 1518 1519 1521 1521 1522 1523 1523 1524 1524 1524 1524 1524 1523 1522 1521 1519 1517 1515
1491 1492 1493 1494 1493 1490 1490 1487 1486 1493 1491 1490 1491 1492 1494 1496 1500 1503 1505 1507 1509 1511 1513 1515 1517 1519 1521 1522 1523 1524 1524 1525 1526 1526 1526 1526 1526 1525 1524 1523 1521 1519 1517 1515
1495 1496 1496 1497 1496 1497 1492 1488 1491 1492 1491 1490 1492 1494 1496 1498 1501 1504 1506 1509 1512 1514 1516 1518 1520 1522 1523 1525 1525 1526 1526 1527 1528 1528 1528 1527 1527 1526 1525 1523 1521 1519 1517 1515
1496 1497 1496 1497 1499 1496 1494 1493 1494 1492 1492 1492 1493 1495 1497 1500 1503 1506 1509 1512 1514 1516 1519 1521 1523 1524 1526 1527 1528 1528 1529 1529 1529 1529 1529 1529 1528 1527 1525 1523 1521 1519 1517 1514
1494 1494 1495 1495 1495 1495 1495 1494 1494 1493 1493 1493 1494 1495 1497 1500 1504 1507 1511 1514 1517 1519 1521 1523 1525 1527 1528 1529 1530 1530 1531 1531 1531 1531 1530 1529 1528 1527 1525 1523 1521 1519 1517 1514
1494 1493 1495 1494 1494 1494 1495 1495 1494 1494 1494 1494 1495 1496 1498 1501 1505 1509 1513 1516 1520 1522 1525 1526 1528 1529 1530 1531 1532 1532 1532 1532 1532 1531 1531 1529 1528 1526 1525 1523 1521 1519 1516 1514
1491 1492 1493 1494 1491 1493 1494 1494 1495 1495 1495 1496 1496 1498 1501 1504 1508 1512 1516 1520 1523 1525 1527 1529 1530 1531 1532 1533 1533 1534 1533 1533 1533 1532 1531 1529 1528 1526 1524 1523 1521 1519 1516 1514